Skip Page Navigation
NASA JPL Caltech
NASA Logo - Jet Propulsion Laboratory + View the NASA Portal
+ Center for Near-Earth Object Studies
JPL Home Earth Solar System Stars & Galaxies Technology
JPL Solar System Dynamics
BODIES ORBITS EPHEMERIDES TOOLS PHYSICAL DATA DISCOVERY FAQ SITE MAP
JPL Small-Body Database Browser
Search: [ help ]  
385563 (2004 TR160)
Classification: Main-belt Asteroid          SPK-ID: 2385563
Ephemeris | Orbit Diagram | Orbital Elements | Mission Design | Physical Parameters | Discovery Circumstances ]

[ show orbit diagram ]
Orbital Elements at Epoch 2459200.5 (2020-Dec-17.0) TDB
Reference: JPL 10 (heliocentric ecliptic J2000)
 Element Value Uncertainty (1-sigma)   Units 
e .07378875640303388 6.3771e-08  
a 2.5904118968231 3.7048e-08 au
q 2.3992686243849 1.664e-07 au
i 7.878668821298072 7.5408e-06 deg
node 219.6494122983705 5.9203e-05 deg
peri 224.122580948554 0.00012019 deg
M 273.4781931762674 0.00011646 deg
tp 2459566.494656895447
(2021-Dec-17.99465690)
0.00049913 TDB
period 1522.830848306097
4.17
3.2669e-05
8.944e-08
d
yr
n .2364018304465277 5.0715e-09 deg/d
Q 2.781555169261301 3.9782e-08 au
  Orbit Determination Parameters
   # obs. used (total)      106  
   data-arc span      7259 days (19.87 yr)  
   first obs. used      2000-12-01  
   last obs. used      2020-10-16  
   planetary ephem.      DE441  
   SB-pert. ephem.      SB441-N16  
   condition code      0  
   norm. resid. RMS      .67388  
   source      ORB  
   producer      Otto Matic  
   solution date      2021-Apr-14 11:05:51  

Additional Information
 Earth MOID = 1.42113 au 
 Jupiter MOID = 2.41784 au 
 T_jup = 3.403 
[ show covariance matrix ]

Ephemeris | Orbit Diagram | Orbital Elements | Mission Design | Physical Parameters | Discovery Circumstances ]

Physical Parameter Table
Parameter Symbol Value Units Sigma Reference Notes
absolute magnitude H 17.72   n/a E2021B25  

385563 (2004 TR160)          Discovered 2004-Oct-06 by Spacewatch at Kitt Peak
Reference: Last Updated: 2014-02-19

Alternate Designations
 2004 TR160 = 2000 XT 
Ephemeris | Orbit Diagram | Orbital Elements | Mission Design | Physical Parameters | Discovery Circumstances ]
ABOUT SSD CREDITS/AWARDS PRIVACY/COPYRIGHT GLOSSARY LINKS
FirstGov 2021-Jun-20 14:13 UT
(server date/time)  
NASA Home Page
Site Manager:   Ryan S. Park
Webmaster  Alan B. Chamberlin